Flag for Brazil Weather past 2 weeks in Florianópolis, Santa Catarina, Brazil

Now
66 °F

Passing clouds.


Feels Like: 66 °F
Forecast: 58 / 70 °F
Wind: No wind

Location: Florianopolis Aeroporto

Current Time: Jul 24, 2014 at 3:56:44 AM

Latest Report: Jul 24, 2014 at 3:00 AM


Visibility: N/A

Pressure: 29.80 "Hg

Humidity: 88%

Dew point: 63 °F

Location of FlorianópolisLocation

Historic Weather in Florianópolis — Graph

°F

Florianópolis temperature yesterday

Maximum temperature yesterday: 73 °F (at 2:00 PM)
Minimum temperature yesterday: 66 °F (at 3:00 AM)
Average temperature yesterday: 69 °F

Past Weeks' High & Low Weather Summary

 TemperatureHumidityPressure
High73 °F (Jul 16, 3:00 PM)94% (Jul 9, 11:00 PM)30.36 "Hg (Jul 9, 11:00 PM)
Low50 °F (Jul 19, 5:00 AM)35% (Jul 19, 2:00 PM)29.80 "Hg (Jul 24, 3:00 AM)
Average64 °F79%30.19 "Hg
* Reported Jul 9 3:00 AM — Jul 24 3:00 AM, Florianópolis, Weather by CustomWeather, © 2014

Note: Actual official high and low records may vary slightly from our data, if they occured in-between our weather recording intervals... More about our weather records

Advertising

Florianópolis weather history for previous 24 hours

 ConditionsComfort  
Time TempWeatherWind HumidityBarometerVisibility
3:00 AM
Jul 24
66 °FPassing clouds.No wind88%29.80 "HgN/A
2:00 AM66 °FPassing clouds.3 mph88%29.83 "HgN/A
1:00 AM70 °FPassing clouds.5 mph69%29.86 "HgN/A
12:00 AM70 °FPassing clouds.10 mph73%29.83 "HgN/A
11:00 PM
Jul 23
70 °FClear.9 mph78%29.83 "Hg10 mi
10:00 PM68 °FClear.5 mph83%29.83 "Hg10 mi
9:00 PM68 °FClear.9 mph88%29.83 "Hg10 mi
8:00 PM68 °FClear.8 mph83%29.83 "Hg10 mi
7:00 PM70 °FClear.8 mph78%29.83 "Hg10 mi
6:00 PM68 °FClear.10 mph83%29.86 "Hg10 mi
5:00 PM70 °FClear.8 mph78%29.86 "Hg10 mi
4:00 PM72 °FSunny.8 mph73%29.86 "Hg10 mi
3:00 PM73 °FSunny.13 mph69%29.86 "Hg10 mi
2:00 PM73 °FSunny.10 mph69%29.86 "Hg10 mi
1:00 PM72 °FSunny.No wind73%29.92 "Hg10 mi
12:00 PM72 °FPassing clouds.14 mph73%29.95 "HgN/A
11:00 AM72 °FPassing clouds.15 mph73%29.98 "HgN/A
10:00 AM68 °FPartly sunny.14 mph83%30.01 "HgN/A
8:00 AM66 °FPartly sunny.9 mph88%30.01 "HgN/A
7:00 AM66 °FPartly sunny.5 mph88%29.98 "HgN/A
6:00 AM66 °FScattered clouds.9 mph83%30.01 "HgN/A
5:00 AM66 °FPassing clouds.7 mph83%30.01 "HgN/A
3:00 AM66 °FPassing clouds.3 mph83%30.04 "HgN/A
Weather by CustomWeather, © 2014

See weather overviewHow to use our weather pages